Location: Chassagnes
(44.4047°N, 4.1657°E)
Time: 12:13:01
(UTC+00:00)

Cosmos 1076 Rocket - Pass Details

Date: 27 October 2020
Orbit: 589 x 613 km, 82.5° (Epoch: 23 November)

Event Time Altitude Azimuth Distance (km) Brightness Sun altitude
Rises 18:04:17 0° 359° (N) 2,832 6.9 -15.7°
Reaches altitude 10° 18:06:38 10° 7° (N) 1,927 6.0 -16.1°
Maximum altitude 18:10:35 37° 76° (ENE) 926 3.9 -16.9°
Enters shadow 18:11:34 32° 107° (ESE) 1,015 4.1 -17.0°
